Content
SEND FEEDBACK

Daily
Averages
Monthly
Summary
French Polynesia

PAPEETE, FRENCH POLYNESIA


Home > Oceania > French Polynesia
Elevation: 2 meters     Latitude: 17 33S     Longitude: 149 36W

WEATHER
 
SELECT A DAY
Number of Records: 214,112;   Date Range: 6/30/96 - 10/18/14
 
SHARE

PRINT THIS DATA

[ ← Previous Day ]
WEATHER ALMANAC - 20 APRIL, 2013
[ Next Day → ]
[ °F ]   °C
Weather ElementAverageHighLow
Temperature26.8 °C30.6 °C (2:00 pm)24 °C (2:00 am)
Dewpoint23.3 °C25 °C (2:00 pm)22 °C (3:00 am)
Humidity80.8 %94 % (1:00 am)63 % (2:00 pm)
Barometer1010.8 hPa1012.5 hPa (11:00 pm)1009.1 hPa (4:30 am)
Wind Speed10 km/h25.3 km/h (5:00 am)
Wind Gust38.9 km/h (12:30 am)
Weather ElementAverage
Visibility10.6 km
Wind DirectionSSE (151.5 °)

Weather ElementTotal
Precipitation---
Cooling Degree Days8.9 (Base 18.3)
Growing Degree Days17.3 (Base 10)
Averaged from 55 records on 20 April, 2013
WEATHER CONDITIONS BREAKOUT
WIND DIRECTION BREAKOUT
WEATHER BY HOUR - 20 APRIL, 2013
[ °F ]   °C
Local TimeTemperatureDewpointHumidityBarometerVisibilityWind DirectionWind SpeedGust SpeedPrecipitationEventsConditions
12:30 AM26 °C23 °C83 %1010.2 hPa3.1 kmNNW (340°)14.8 km/h38.9 km/hRain-ThunderstormHeavy Thunderstorms and Rain
1:00 AM25 °C24 °C94 %1010.2 hPa3.1 kmNorth (350°)16.7 km/hRain-ThunderstormLight Thunderstorms and Rain
1:30 AM25 °C23 °C89 %1010.2 hPa3.1 kmNNE (20°)9.3 km/hRain-ThunderstormLight Thunderstorms and Rain
2:00 AM24.4 °C22.8 °C89 %1010.8 hPa3.2 kmNE (50°)9.3 km/hRainLight Rain
2:00 AM24 °C23 °C94 %1010.2 hPa3.1 kmNE (50°)9.3 km/hRainLight Rain
2:30 AM24 °C23 °C94 %1010.2 hPa3.1 kmSE (140°)11.1 km/hRain-ThunderstormLight Thunderstorms and Rain
3:00 AM24 °C22 °C89 %1010.2 hPa3.1 kmSouth (170°)20.4 km/hRain-ThunderstormLight Thunderstorms and Rain
3:30 AM24 °C23 °C94 %1010.2 hPa10 kmSouth (180°)16.7 km/hOvercast
4:00 AM25 °C23 °C89 %1010.2 hPa2.7 kmSouth (190°)11.1 km/hRainHeavy Rain
4:30 AM24 °C23 °C94 %1009.1 hPa10 kmSouth (190°)13 km/hRainLight Rain
5:00 AM24.4 °C22.8 °C87 %1010.2 hPa19.3 kmSouth (190°)25.3 km/hRainLight Rain
5:00 AM25 °C23 °C89 %1010.2 hPa10 kmSouth (190°)13 km/hRainLight Rain
5:30 AM24 °C22 °C89 %1009.1 hPa10 kmVariable5.6 km/hRainLight Rain
6:00 AM25 °C23 °C89 %1010.2 hPa10 kmNorth (350°)7.4 km/hMostly Cloudy
6:30 AM24 °C22 °C89 %1011.2 hPa10 kmEast (100°)9.3 km/hMostly Cloudy
7:00 AM24 °C22 °C89 %1011.2 hPa10 kmEast (90°)5.6 km/hMostly Cloudy
7:30 AM25 °C23 °C89 %1011.2 hPa10 kmEast (90°)5.6 km/hMostly Cloudy
8:00 AM25.6 °C23.3 °C82 %1012.2 hPa19.3 kmENE (70°)5.6 km/hPartly Cloudy
8:00 AM26 °C23 °C83 %1012.2 hPa10 kmENE (70°)5.6 km/hMostly Cloudy
8:30 AM27 °C23 °C79 %1012.2 hPa10 kmVariable5.6 km/hMostly Cloudy
9:00 AM27 °C22 °C74 %1012.2 hPa10 kmVariable3.7 km/hOvercast
9:30 AM27 °C23 °C79 %1012.2 hPa10 kmNE (40°)7.4 km/hMostly Cloudy
10:00 AM28 °C24 °C79 %1012.2 hPa10 kmENE (70°)5.6 km/hMostly Cloudy
10:30 AM28 °C23 °C74 %1011.2 hPa10 kmVariable3.7 km/hScattered Clouds
11:00 AM28.9 °C23.3 °C65 %1011.5 hPa25.7 kmENE (60°)5.6 km/hScattered Clouds
11:00 AM29 °C23 °C70 %1011.2 hPa10 kmVariable5.6 km/hMostly Cloudy
11:30 AM29 °C23 °C70 %1010.2 hPa10 kmENE (60°)11.1 km/hMostly Cloudy
12:00 PM30 °C24 °C70 %1010.2 hPa10 kmNE (50°)14.8 km/hScattered Clouds
12:30 PM30 °C24 °C70 %1010.2 hPa10 kmENE (60°)13 km/hScattered Clouds
1:00 PM30 °C24 °C70 %1009.1 hPa10 kmNE (40°)13 km/hScattered Clouds
1:30 PM30 °C24 °C70 %1009.1 hPa10 kmNE (40°)11.1 km/hScattered Clouds
2:00 PM30.6 °C24.4 °C63 %1009.5 hPa30.6 kmNorth21.6 km/hScattered Clouds
2:00 PM30 °C25 °C74 %1009.1 hPa10 kmNorth (360°)11.1 km/hScattered Clouds
2:30 PM30 °C24 °C70 %1009.1 hPa10 kmNorth (360°)11.1 km/hScattered Clouds
3:00 PM29 °C24 °C74 %1009.1 hPa10 kmNNW (340°)11.1 km/hScattered Clouds
3:30 PM29 °C24 °C74 %1009.1 hPa10 kmNorth (360°)11.1 km/hScattered Clouds
4:00 PM29 °C24 °C74 %1010.2 hPa10 kmNNW (330°)7.4 km/hScattered Clouds
4:30 PM29 °C23 °C70 %1010.2 hPa10 kmNNW (340°)9.3 km/hScattered Clouds
5:00 PM28.3 °C23.3 °C67 %1010.5 hPa30.6 kmNorth (350°)9.3 km/hPartly Cloudy
5:00 PM28 °C23 °C74 %1010.2 hPa10 kmNorth (350°)9.3 km/hScattered Clouds
5:30 PM28 °C23 °C74 %1010.2 hPa10 kmNorth (360°)7.4 km/hScattered Clouds
6:00 PM28 °C24 °C79 %1010.2 hPa10 kmNNW (340°)13 km/hMostly Cloudy
6:30 PM28 °C24 °C79 %1011.2 hPa10 kmNorth (350°)9.3 km/hMostly Cloudy
7:00 PM27 °C23 °C79 %1011.2 hPa10 kmNNW (340°)16.7 km/hMostly Cloudy
7:30 PM26 °C23 °C83 %1012.2 hPa10 kmEast (100°)9.3 km/hMostly Cloudy
8:00 PM26.1 °C23.9 °C83 %1012.2 hPa19.3 kmESE (110°)5.6 km/hMostly Cloudy
8:00 PM26 °C24 °C89 %1012.2 hPa10 kmVariable5.6 km/hMostly Cloudy
8:30 PM26 °C23 °C83 %1012.2 hPa10 kmESE (110°)7.4 km/hMostly Cloudy
9:00 PM26 °C23 °C83 %1012.2 hPa10 kmEast (90°)7.4 km/hMostly Cloudy
9:30 PM27 °C23 °C79 %1012.2 hPa10 kmEast (80°)5.6 km/hMostly Cloudy
10:00 PM27 °C24 °C84 %1012.2 hPa10 kmEast (90°)7.4 km/hMostly Cloudy
10:30 PM27 °C24 °C84 %1012.2 hPa10 kmENE (70°)5.6 km/hMostly Cloudy
11:00 PM26.7 °C23.9 °C80 %1012.5 hPa14.5 kmESE (110°)14.3 km/hMostly Cloudy
11:00 PM27 °C24 °C84 %1012.2 hPa10 kmVariable7.4 km/hMostly Cloudy
11:30 PM25 °C24 °C94 %1012.2 hPa10 kmSE (140°)5.6 km/hRain-ThunderstormLight Thunderstorms and Rain
Hourly data recorded from NTAA, located 0 kilometers away from Papeete, French Polynesia







STORIES FROM OUR PARTNERS